Regional Weather Roundup
Issued by NWS

Home | Current Version | Previous Version | Text Only | Print | Product List | Glossary On
Versions: 1 2 3 4 5 6 7 8 9 10 11 12 13 14 15 16 17 18 19 20 21 22 23 24 25 26 27
000
ASUS46 KSEW 181110
RWRWA

WASHINGTON REGIONAL WEATHER ROUNDUP
NATIONAL WEATHER SERVICE SEATTLE WA
400 AM PDT FRI APR 18 2014

NOTE:"FAIR" INDICATES FEW OR NO CLOUDS BELOW 12,000 FEET WITH NO
SIGNIFICANT WEATHER AND/OR OBSTRUCTIONS TO VISIBILITY.

WAZ505-507>509-181200-
SEATTLE, TACOMA, EVERETT, AND VICINITY

CITY           SKY/WX    TMP DP  RH WIND       PRES   REMARKS
EVERETT        LGT RAIN  42  40  92 VRB3      29.98R
BOEING FIELD   CLOUDY    46  39  76 S5        30.00R
RENTON         MOCLDY    46  40  79 S8G16     30.00R
SEATAC AIRPORT MOCLDY    43  38  82 SW12      29.99R
JBLM-MCCHORD   CLEAR     43  40  90 S16       30.00R
PUYALLUP         N/A     41  39  93 SW7       30.01R
JBLM-FT LEWIS  CLEAR     42  39  89 S12       30.02R
TACOMA NARROWS CLEAR     43  37  79 VRB6      30.00R
$$

WAZ001-503-506-510-514-515-181200-
NORTH INTERIOR

CITY           SKY/WX    TMP DP  RH WIND       PRES   REMARKS
BELLINGHAM     CLOUDY    47  38  71 S5        29.93R
FRIDAY HARBOR  CLEAR     44  38  79 SW8       29.96R
EASTSOUND      PTCLDY    45  37  76 SW5       29.92R
PORT ANGELES   PTCLDY    44  34  67 W10       29.97R
NAS WHIDBEY    PTCLDY    49  39  68 W23G30    29.97R
BURLINGTON     CLOUDY   N/A N/A N/A W5G16     29.96R
$$

WAZ020-022-039-040-504-511-512-181200-
SOUTHWEST INTERIOR

CITY           SKY/WX    TMP DP  RH WIND       PRES   REMARKS
SHELTON        CLEAR     40  37  89 SW10      29.99R
OLYMPIA        MOCLDY    44  39  82 SW12      30.03R
CHEHALIS       CLOUDY    39  39 100 SW3       30.07R
KELSO          MOCLDY    43  37  81 SE3       30.12R
VANCOUVER      CLEAR     41  38  89 CALM      30.10R
SCAPPOOSE, OR  MOCLDY    37  36  96 CALM      30.09R
PORTLAND, OR   PTCLDY    43  40  89 CALM      30.11R
$$

WAZ021-516-517-181200-
WASHINGTON COAST

CITY           SKY/WX    TMP DP  RH WIND       PRES   REMARKS
FORKS          PTCLDY    38  37  97 CALM      30.02R FOG
HOQUIAM        CLEAR     47  38  71 W9        30.04R
ASTORIA, OR    PTCLDY    44  38  79 W6        30.08R
$$

WAZ019-023-024-040-518-519-181200-
CASCADE MOUNTAINS AND COLUMBIA GORGE

CITY           SKY/WX    TMP DP  RH WIND       PRES   REMARKS
STAMPEDE PASS  NOT AVBL
TROUTDALE, OR  MOCLDY    43  40  89 N3        30.09R
THE DALLES, OR PTCLDY    45  38  76 W3        30.04R
$$

WAZ026-027-041>044-520-521-181200-
EAST SLOPES

CITY           SKY/WX    TMP DP  RH WIND       PRES   REMARKS
OMAK           MOCLDY    46  29  51 SW12G21   29.70R
WENATCHEE      CLEAR     45  31  58 NW15      29.83R
ELLENSBURG     CLEAR     38  28  67 NW8       29.88R
YAKIMA         CLEAR     43  25  49 VRB5      29.92R
$$

WAZ028-034-035-181200-
COLUMBIA BASIN

CITY           SKY/WX    TMP DP  RH WIND       PRES   REMARKS
EPHRATA        PTCLDY    40  33  76 W7        29.82R
MOSES LAKE     CLEAR     45  30  55 W15       29.83R
HANFORD        NOT AVBL
PASCO          CLEAR     46  37  71 SW17      29.94R
HERMISTON, OR  CLEAR     45  37  73 SW15G22   29.98R
$$

WAZ036>038-181200-
NORTHEAST WASHINGTON

CITY           SKY/WX    TMP DP  RH WIND       PRES   REMARKS
SPOKANE GEIGER PTCLDY    41  34  76 SW21      29.75R
SPOKANE FELTS  PTCLDY    45  37  73 SW14G29   29.78R
FAIRCHILD AFB  CLEAR     39  34  83 SW18G28   29.76R
COEURDALENE,ID CLOUDY    45  36  70 SW18G24   29.78R
DEER PARK      PTCLDY    42  37  82 SW15      29.75R
$$

WAZ029>033-181200-
SOUTHEAST WASHINGTON

CITY           SKY/WX    TMP DP  RH WIND       PRES   REMARKS
PULLMAN        PTCLDY    41  34  76 SW21G29   29.88R
LEWISTON, ID   MOCLDY    49  35  58 W16G22    29.88R
WALLA WALLA    CLEAR     45  36  70 SW15G23   29.96R
PENDLETON, OR  CLEAR     42  36  79 W10       29.97R
$$



USA.gov is the U.S. government's official web portal to all federal, state and local government web resources and services.